CDT,Max TemperatureF,Mean TemperatureF,Min TemperatureF,Max Dew PointF,MeanDew PointF,Min DewpointF,Max Humidity, Mean Humidity, Min Humidity, Max Sea Level PressureIn, Mean Sea Level PressureIn, Min Sea Level PressureIn, Max VisibilityMiles, Mean VisibilityMiles, Min VisibilityMiles, Max Wind SpeedMPH, Mean Wind SpeedMPH, Max Gust SpeedMPH,PrecipitationIn, CloudCover, Events, WindDirDegrees
2013-9-1,85,76,67,69,63,50,93,69,31,29.89,29.80,29.76,10,9,4,17,5,24,0.00,2,,294
2013-9-2,65,59,51,58,53,50,92,73,58,30.04,30.00,29.90,10,10,10,10,4,20,0.00,3,,341
2013-9-3,77,62,48,57,51,47,97,75,37,30.12,30.06,30.02,10,8,0,6,1,,0.00,2,Fog,218
2013-9-4,85,68,52,69,59,50,97,75,45,30.13,30.09,30.05,10,9,0,7,1,,0.00,2,Fog,248
2013-9-5,82,74,65,66,62,59,97,74,47,30.23,30.18,30.11,10,9,0,9,3,,0.00,3,Fog,103
2013-9-6,87,73,59,64,58,50,79,61,40,30.19,30.08,29.95,10,10,10,10,5,,0.00,0,,137
2013-9-7,88,78,67,72,64,59,91,65,48,29.96,29.91,29.87,10,10,7,7,2,,0.00,0,,193
2013-9-8,75,70,67,70,64,59,93,77,70,30.05,29.97,29.92,10,10,5,15,7,22,0.00,7,,78
2013-9-9,95,81,67,72,66,60,90,67,41,29.92,29.82,29.75,10,8,3,8,4,,0.00,3,,150
2013-9-10,96,84,73,68,61,57,72,48,28,29.99,29.90,29.82,10,10,10,14,5,22,0.00,1,,236
2013-9-11,83,74,65,66,63,59,93,74,46,30.07,30.03,29.99,10,10,7,17,2,24,0.21,3,Rain,246
2013-9-12,75,64,54,60,50,43,91,61,35,30.17,30.09,30.02,10,10,10,18,5,24,0.00,1,,327
2013-9-13,68,56,45,48,43,39,93,65,34,30.27,30.20,30.14,10,10,10,13,2,17,0.00,0,,8
2013-9-14,72,57,42,50,43,40,94,62,33,30.17,30.08,29.94,10,10,10,10,4,22,0.00,1,Rain,147
2013-9-15,65,60,55,55,53,51,94,83,64,30.24,30.04,29.91,10,9,3,12,5,16,0.51,7,Rain,57
2013-9-16,66,57,48,53,45,35,90,69,36,30.41,30.33,30.25,10,10,5,14,4,,0.00,4,,60
2013-9-17,66,55,44,57,50,43,93,80,56,30.33,30.20,30.04,10,10,5,12,4,,0.06,4,Rain,116
2013-9-18,80,71,62,68,63,56,87,76,62,30.04,29.91,29.81,10,10,5,10,5,18,0.04,5,Rain,131
2013-9-19,86,77,68,70,67,62,95,83,51,29.83,29.78,29.70,10,9,2,12,5,44,0.94,5,Rain,140
2013-9-20,68,61,54,66,54,49,93,77,59,29.90,29.84,29.78,10,10,7,17,7,24,0.02,4,Rain,268
2013-9-21,65,56,47,50,47,44,95,75,47,29.98,29.93,29.90,10,10,10,12,6,16,0.00,2,,306
2013-9-22,69,56,43,51,47,43,97,78,46,30.06,30.00,29.95,10,7,0,8,2,,0.00,3,Fog,115
2013-9-23,71,60,48,53,48,45,89,69,43,30.07,30.02,29.97,10,10,10,12,5,18,0.00,0,,120
2013-9-24,74,60,47,54,49,46,94,73,39,30.01,29.97,29.91,10,9,4,10,3,16,0.00,0,,104
2013-9-25,73,60,46,56,50,46,97,79,40,30.00,29.96,29.91,10,7,0,9,1,,0.00,2,Fog,104
2013-9-26,78,64,49,58,53,47,95,71,45,30.03,30.00,29.96,10,8,3,14,3,18,0.00,0,,114
2013-9-27,81,69,57,59,52,49,77,58,40,30.07,30.02,29.96,10,10,10,14,5,22,0.00,0,,119
2013-9-28,75,63,51,64,55,49,96,77,55,30.01,29.90,29.81,10,9,3,16,6,30,0.38,4,Rain,144
2013-9-29,70,58,45,55,47,42,97,75,36,30.07,30.01,29.96,10,8,0,8,1,,0.01,2,Fog,161
2013-9-30,74,61,49,53,46,42,89,61,34,29.96,29.87,29.76,10,10,10,12,5,18,0.03,0,,121